Location: Emory University Observatory
(33.7903°N, 84.3267°W)
Time: 03:15:55
(UTC-04:00)

Vanguard 2 Rocket - All Passes

Search period start: 24 June 2018 00:00
Search period end: 04 July 2018 00:00
Orbit: 553 x 3328 km, 32.9° (Epoch: 23 June)

Date Brightness Start Highest point End Pass type
(mag) Time Alt. Az. Time Alt. Az. Time Alt. Az.
24 Jun - 07:40:50 10° S 07:53:42 27° SE 08:08:40 10° E daylight
24 Jun - 09:51:44 10° SW 10:10:01 60° SSE 10:28:40 10° ENE daylight
24 Jun - 12:07:57 10° WSW 12:28:39 84° S 12:44:54 10° E daylight
24 Jun - 14:27:21 10° W 14:47:03 83° S 14:59:20 10° ESE daylight
24 Jun - 16:47:38 10° WNW 17:02:40 50° SW 17:11:29 10° SE daylight
24 Jun - 19:11:34 10° WSW 19:14:47 12° SW 19:17:34 10° SW daylight
25 Jun - 06:44:08 10° SSE 06:53:06 17° SE 07:03:26 10° E daylight
25 Jun - 08:51:51 10° SSW 09:08:15 49° SE 09:26:53 10° ENE daylight
25 Jun - 11:06:19 10° WSW 11:26:16 78° SSE 11:44:15 10° E daylight
25 Jun - 13:24:38 10° W 13:45:17 87° S 13:59:34 10° E daylight
25 Jun - 15:44:39 10° WNW 16:02:19 64° SSW 16:12:47 10° SE daylight
25 Jun - 18:06:02 10° W 18:15:42 23° SW 18:22:21 10° S daylight
26 Jun - 07:52:48 10° SSW 08:06:58 37° SE 08:24:19 10° E daylight
26 Jun - 10:05:21 10° SW 10:23:55 70° SSE 10:43:08 10° E daylight
26 Jun - 12:22:19 10° W 12:43:03 87° S 12:59:21 10° E daylight
26 Jun - 14:41:45 10° W 15:01:19 76° SSW 15:13:36 10° ESE daylight
26 Jun - 17:02:20 10° W 17:16:12 37° SW 17:24:53 10° SSE daylight
27 Jun - 06:54:45 10° S 07:06:13 26° SE 07:20:38 10° E daylight
27 Jun - 09:05:07 10° SW 09:21:54 60° SSE 09:41:28 10° ENE daylight
27 Jun - 11:20:31 10° WSW 11:40:33 85° S 11:58:41 10° E daylight
27 Jun - 13:39:05 10° W 13:59:40 83° SSW 14:13:57 10° ESE daylight
27 Jun - 15:59:07 10° WNW 16:16:07 51° SW 16:26:35 10° SE daylight
27 Jun - 18:22:48 10° W 18:28:50 14° SW 18:33:41 10° SSW daylight
28 Jun - 05:58:31 10° SSE 06:06:00 16° SE 06:14:56 10° E visible
28 Jun - 08:05:37 10° SSW 08:20:20 49° SE 08:39:13 10° ENE daylight
28 Jun - 10:19:21 10° WSW 10:38:03 79° SSE 10:57:32 10° E daylight
28 Jun - 12:36:45 10° W 12:57:29 87° S 13:13:47 10° E daylight
28 Jun - 14:56:09 10° WNW 15:15:21 65° SSW 15:27:40 10° SE daylight
28 Jun - 17:17:36 10° W 17:29:28 26° SW 17:37:38 10° S daylight
29 Jun - 07:06:53 10° SSW 07:19:23 37° SE 07:36:13 10° E daylight
29 Jun - 09:18:51 10° WSW 09:35:45 71° SSE 09:55:55 10° ENE daylight
29 Jun - 11:34:53 10° W 11:54:58 88° S 12:13:08 10° E daylight
29 Jun - 13:53:29 10° W 14:13:54 76° SSW 14:28:11 10° ESE daylight
29 Jun - 16:13:48 10° W 16:29:35 39° SW 16:39:55 10° SSE daylight
30 Jun - 06:09:10 10° S 06:19:03 25° SE 06:32:13 10° E daylight
30 Jun - 08:19:00 10° SW 08:33:56 60° SSE 08:53:46 10° ENE daylight
30 Jun - 10:33:36 10° WSW 10:52:20 85° S 11:11:59 10° E daylight
30 Jun - 12:51:11 10° W 13:11:52 83° SSW 13:28:09 10° ESE daylight
30 Jun - 15:10:36 10° WNW 15:29:05 53° SW 15:41:22 10° SE daylight
30 Jun - 17:34:06 10° W 17:42:32 17° SW 17:49:08 10° SSW daylight
01 Jul - 05:13:27 10° SSE 05:19:13 14° SE 05:26:06 10° E visible
01 Jul - 07:19:50 10° SSW 07:32:44 48° SE 07:51:06 10° ENE daylight
01 Jul - 09:32:55 10° WSW 09:49:52 80° SSE 10:10:19 10° E daylight
01 Jul - 11:49:20 10° W 12:09:24 87° S 12:27:35 10° E daylight
01 Jul - 14:07:53 10° WNW 14:27:54 65° SSW 14:42:10 10° SE daylight
01 Jul - 16:29:01 10° W 16:42:49 28° SW 16:52:35 10° S daylight
02 Jul - 06:21:25 10° SSW 06:32:11 35° SE 06:47:48 10° E daylight
02 Jul - 08:32:49 10° WSW 08:47:48 71° SSE 09:08:12 10° E daylight
02 Jul - 10:48:00 10° W 11:06:45 88° S 11:26:26 10° E daylight
02 Jul - 13:05:36 10° W 13:26:05 75° SSW 13:42:21 10° ESE daylight
02 Jul - 15:25:18 10° W 15:42:32 41° SW 15:54:37 10° SSE daylight
03 Jul - 05:23:59 10° S 05:32:15 23° SE 05:43:37 10° E visible
03 Jul - 07:33:20 10° SW 07:46:20 60° SSE 08:05:38 10° ENE daylight
03 Jul - 09:47:12 10° WSW 10:04:10 86° S 10:24:44 10° E daylight
03 Jul - 12:03:47 10° W 12:23:46 82° SSW 12:41:55 10° ESE daylight
03 Jul - 14:22:21 10° WNW 14:41:36 54° SSW 14:55:47 10° SE daylight
03 Jul - 16:45:23 10° W 16:55:52 19° SW 17:04:07 10° SSW daylight
